Regional Weather Roundup
Issued by NWS Charleston, WV

Home | Current Version | Previous Version | Graphics & Text | Print | Product List | Glossary On
Versions: 1 2 3 4 5 6 7 8 9 10 11 12 13 14 15 16 17 18 19 20 21 22 23 24 25 26 27 28 29 30 31 32 33 34 35 36 37 38 39 40 41 42 43 44 45 46 47 48 49 50
000
ASUS41 KRLX 311310
RWRRLX
West Virginia Regional Weather Roundup
National Weather Service Charleston WV
900 AM EDT MON AUG 31 2015

Note: "fair" indicates few or no clouds below 12,000 feet with no
significant weather and/or obstructions to visibility.

WVZ003-311400-
Northern Panhandle of West Virginia

CITY           SKY/WX    TMP DP  RH WIND       PRES   REMARKS
WHEELING       PTSUNNY   69  66  90 S3        30.13R
$$

WVZ009-311400-
Northwest West Virginia

CITY           SKY/WX    TMP DP  RH WIND       PRES   REMARKS
PARKERSBURG    MOSUNNY   72  67  84 CALM      30.16R
$$

WVZ006-311400-
Western West Virginia

CITY           SKY/WX    TMP DP  RH WIND       PRES   REMARKS
HUNTINGTON     SUNNY     69  67  93 S3        30.14R
$$

WVZ015-311400-
West Central West Virginia

CITY           SKY/WX    TMP DP  RH WIND       PRES   REMARKS
CHARLESTON     MOSUNNY   69  67  93 CALM      30.14S
$$

WVZ022-031-311400-
North Central West Virginia

CITY           SKY/WX    TMP DP  RH WIND       PRES   REMARKS
CLARKSBURG     CLOUDY    72  67  84 CALM      30.15R
MORGANTOWN     CLOUDY    74  65  73 CALM      30.16R
$$

WVZ025-035-042-045-311400-
Southern West Virginia

CITY           SKY/WX    TMP DP  RH WIND       PRES   REMARKS
BECKLEY        CLOUDY    68  61  78 CALM      30.21R
LOGAN            N/A     70  66  88 CALM      30.17S
BLUEFIELD      CLOUDY    68  57  68 W3        30.22F
LEWISBURG      CLOUDY    66  64  93 CALM      30.21R FOG
$$

WVZ047-311400-
Northern Mountains of West Virginia

CITY           SKY/WX    TMP DP  RH WIND       PRES   REMARKS
ELKINS         PTSUNNY   68  63  84 CALM      30.19S
$$

WVZ052-311400-
Eastern Panhandle of West Virginia

CITY           SKY/WX    TMP DP  RH WIND       PRES   REMARKS
MARTINSBURG    CLOUDY    75  65  70 VRB3      30.10S
PETERSBURG     CLOUDY    67  67  99 CALM      30.15R FOG
$$



USA.gov is the U.S. government's official web portal to all federal, state and local government web resources and services.